VAR340 SEQM-SKPS

Flight info

Callsign VAR340
Flight time 0h 43m
Altitude 12000
Route TABACUNDO LAGOSANPABLO SEIB ELANGEL CUMBAL TUQUERRES NARINO
Aircraft C208/L-SDE2E3FGHIRWXY/S

Departure

Time 2026-04-28 19:04
Airport Mariscal Sucre International Airport (SEQM)

Arrival

Time 2026-04-28 19:48
Airport Antonio Nariño Airport (SKPS)
Time Latitude Longitude Altitude Speed Heading
2026-04-28 18:54 -0.13743 -78.35660 7894 ft 0 kts 235°
2026-04-28 19:00 -0.13758 -78.35669 7895 ft 5 kts 175°
2026-04-28 19:00 -0.13771 -78.35639 7895 ft 6 kts 93°
2026-04-28 19:00 -0.13773 -78.35611 7896 ft 6 kts 97°
2026-04-28 19:01 -0.13787 -78.35568 7896 ft 7 kts 134°
2026-04-28 19:01 -0.13834 -78.35555 7897 ft 8 kts 177°
2026-04-28 19:01 -0.13888 -78.35552 7897 ft 8 kts 178°
2026-04-28 19:01 -0.13941 -78.35550 7899 ft 7 kts 177°
2026-04-28 19:02 -0.13986 -78.35548 7909 ft 6 kts 176°
2026-04-28 19:02 -0.14055 -78.35543 7904 ft 16 kts 177°
2026-04-28 19:02 -0.14159 -78.35540 7910 ft 13 kts 179°
2026-04-28 19:02 -0.14235 -78.35520 7917 ft 10 kts 134°
2026-04-28 19:03 -0.14256 -78.35454 7914 ft 11 kts 86°
2026-04-28 19:03 -0.14245 -78.35394 7917 ft 0 kts 59°
2026-04-28 19:03 -0.14182 -78.35366 7909 ft 18 kts 359°
2026-04-28 19:03 -0.13870 -78.35378 7898 ft 79 kts 358°
2026-04-28 19:04 -0.13182 -78.35408 7994 ft 108 kts 358°
2026-04-28 19:04 -0.12414 -78.35421 8267 ft 110 kts 358°
2026-04-28 19:04 -0.11589 -78.35450 8452 ft 126 kts 355°
2026-04-28 19:04 -0.10671 -78.35510 8651 ft 136 kts 358°
2026-04-28 19:05 -0.09708 -78.35493 8936 ft 137 kts
2026-04-28 19:05 -0.08788 -78.35368 9234 ft 137 kts 10°
2026-04-28 19:05 -0.07822 -78.35085 9237 ft 154 kts 18°
2026-04-28 19:05 -0.06763 -78.34689 9026 ft 175 kts 32°
2026-04-28 19:06 -0.05824 -78.33866 8832 ft 184 kts 44°
2026-04-28 19:06 -0.04942 -78.32994 8973 ft 170 kts 44°
2026-04-28 19:06 -0.04125 -78.32196 9206 ft 160 kts 44°
2026-04-28 19:06 -0.03355 -78.31410 9466 ft 157 kts 46°
2026-04-28 19:07 -0.02616 -78.30601 9732 ft 160 kts 45°
2026-04-28 19:07 -0.01860 -78.29804 10021 ft 159 kts 43°
2026-04-28 19:07 -0.01115 -78.28995 10236 ft 154 kts 52°
2026-04-28 19:07 -0.00540 -78.28109 10457 ft 150 kts 56°
2026-04-28 19:08 0.00012 -78.27245 10676 ft 145 kts 55°
2026-04-28 19:08 0.00652 -78.26489 10885 ft 143 kts 48°
2026-04-28 19:08 0.01309 -78.25755 11118 ft 141 kts 49°
2026-04-28 19:08 0.01970 -78.25027 11352 ft 141 kts 49°
2026-04-28 19:09 0.02650 -78.24290 11545 ft 146 kts 48°
2026-04-28 19:09 0.03437 -78.23630 11739 ft 150 kts 36°
2026-04-28 19:09 0.04316 -78.23058 11934 ft 150 kts 36°
2026-04-28 19:09 0.05239 -78.22539 12119 ft 154 kts 25°
2026-04-28 19:10 0.06258 -78.22151 12317 ft 158 kts 24°
2026-04-28 19:10 0.07294 -78.21784 12511 ft 163 kts 17°
2026-04-28 19:10 0.08407 -78.21587 12716 ft 161 kts 11°
2026-04-28 19:10 0.09549 -78.21517 12888 ft 166 kts
2026-04-28 19:11 0.10719 -78.21540 12977 ft 170 kts
2026-04-28 19:11 0.11914 -78.21603 13000 ft 174 kts
2026-04-28 19:11 0.13128 -78.21659 13001 ft 177 kts
2026-04-28 19:11 0.14367 -78.21721 12986 ft 179 kts
2026-04-28 19:12 0.15613 -78.21785 12998 ft 182 kts
2026-04-28 19:12 0.16888 -78.21849 12993 ft 184 kts
2026-04-28 19:12 0.18173 -78.21914 12999 ft 185 kts
2026-04-28 19:12 0.19463 -78.21981 12993 ft 187 kts
2026-04-28 19:13 0.20756 -78.22047 12974 ft 184 kts
2026-04-28 19:13 0.22022 -78.22119 12980 ft 182 kts
2026-04-28 19:13 0.23300 -78.22158 12983 ft 185 kts
2026-04-28 19:13 0.24535 -78.21942 12980 ft 181 kts 19°
2026-04-28 19:14 0.25753 -78.21583 12973 ft 177 kts 21°
2026-04-28 19:14 0.26915 -78.21221 12973 ft 178 kts 21°
2026-04-28 19:14 0.28088 -78.20859 12966 ft 174 kts 21°
2026-04-28 19:14 0.29192 -78.20390 12973 ft 172 kts 34°
2026-04-28 19:15 0.30170 -78.19710 12969 ft 171 kts 44°
2026-04-28 19:15 0.31007 -78.18874 12969 ft 169 kts 50°
2026-04-28 19:15 0.31810 -78.18016 12973 ft 169 kts 50°
2026-04-28 19:15 0.32343 -78.17451 12974 ft 168 kts 50°
2026-04-28 19:16 0.33404 -78.16310 12977 ft 167 kts 53°
2026-04-28 19:16 0.34140 -78.15418 12974 ft 166 kts 54°
2026-04-28 19:16 0.34875 -78.14529 12972 ft 166 kts 54°
2026-04-28 19:16 0.35610 -78.13644 12971 ft 165 kts 54°
2026-04-28 19:17 0.36345 -78.12757 12974 ft 166 kts 54°
2026-04-28 19:17 0.37070 -78.11873 12974 ft 167 kts 54°
2026-04-28 19:17 0.37808 -78.10978 12996 ft 165 kts 54°
2026-04-28 19:17 0.38528 -78.10108 13092 ft 159 kts 53°
2026-04-28 19:18 0.39235 -78.09260 13187 ft 158 kts 55°
2026-04-28 19:18 0.39936 -78.08427 13287 ft 156 kts 54°
2026-04-28 19:18 0.40643 -78.07594 13381 ft 157 kts 53°
2026-04-28 19:18 0.41348 -78.06769 13478 ft 155 kts 54°
2026-04-28 19:19 0.42051 -78.05950 13571 ft 155 kts 53°
2026-04-28 19:19 0.42767 -78.05145 13670 ft 156 kts 49°
2026-04-28 19:19 0.43594 -78.04440 13769 ft 157 kts 40°
2026-04-28 19:19 0.44517 -78.03849 13873 ft 158 kts 36°
2026-04-28 19:20 0.45490 -78.03318 13956 ft 160 kts 34°
2026-04-28 19:20 0.46491 -78.02793 13971 ft 165 kts 33°
2026-04-28 19:20 0.47514 -78.02252 13977 ft 167 kts 32°
2026-04-28 19:20 0.48547 -78.01706 13974 ft 169 kts 33°
2026-04-28 19:21 0.49591 -78.01159 13974 ft 170 kts 33°
2026-04-28 19:21 0.50641 -78.00601 13973 ft 171 kts 32°
2026-04-28 19:21 0.51693 -78.00042 13974 ft 171 kts 32°
2026-04-28 19:21 0.52734 -77.99487 13977 ft 172 kts 33°
2026-04-28 19:22 0.53782 -77.98920 13970 ft 171 kts 34°
2026-04-28 19:22 0.54474 -77.98550 13972 ft 169 kts 34°
2026-04-28 19:22 0.55866 -77.97810 13968 ft 169 kts 33°
2026-04-28 19:22 0.56867 -77.97281 13944 ft 155 kts 33°
2026-04-28 19:23 0.57834 -77.96806 13976 ft 158 kts 32°
2026-04-28 19:23 0.58804 -77.96290 13986 ft 162 kts 33°
2026-04-28 19:23 0.59802 -77.95756 14007 ft 165 kts 33°
2026-04-28 19:23 0.60832 -77.95200 14004 ft 170 kts 34°
2026-04-28 19:24 0.61872 -77.94643 14017 ft 170 kts 33°
2026-04-28 19:24 0.62923 -77.94087 14027 ft 171 kts 32°
2026-04-28 19:24 0.63980 -77.93527 14032 ft 172 kts 33°
2026-04-28 19:24 0.65045 -77.92968 14036 ft 173 kts 34°
2026-04-28 19:25 0.66109 -77.92408 14046 ft 173 kts 33°
2026-04-28 19:25 0.67170 -77.91838 14055 ft 172 kts 33°
2026-04-28 19:25 0.68231 -77.91267 14055 ft 173 kts 34°
2026-04-28 19:25 0.69279 -77.90697 14068 ft 174 kts 34°
2026-04-28 19:26 0.70334 -77.90127 14073 ft 172 kts 32°
2026-04-28 19:26 0.71380 -77.89569 14071 ft 170 kts 34°
2026-04-28 19:26 0.72423 -77.89018 14089 ft 170 kts 34°
2026-04-28 19:26 0.73493 -77.88455 14097 ft 175 kts 33°
2026-04-28 19:27 0.74571 -77.87882 14111 ft 176 kts 32°
2026-04-28 19:27 0.75652 -77.87299 14115 ft 176 kts 31°
2026-04-28 19:27 0.76734 -77.86716 14121 ft 176 kts 33°
2026-04-28 19:27 0.77804 -77.86133 14120 ft 177 kts 34°
2026-04-28 19:28 0.78876 -77.85541 14126 ft 175 kts 33°
2026-04-28 19:28 0.79943 -77.84953 14131 ft 174 kts 33°
2026-04-28 19:28 0.81000 -77.84368 14128 ft 174 kts 32°
2026-04-28 19:28 0.82054 -77.83790 14141 ft 173 kts 33°
2026-04-28 19:29 0.83111 -77.83209 14147 ft 173 kts 33°
2026-04-28 19:29 0.83809 -77.82827 14143 ft 174 kts 32°
2026-04-28 19:29 0.85231 -77.82047 14152 ft 174 kts 33°
2026-04-28 19:29 0.86297 -77.81466 14155 ft 174 kts 32°
2026-04-28 19:30 0.87364 -77.80889 14156 ft 175 kts 32°
2026-04-28 19:30 0.88418 -77.80310 14152 ft 174 kts 34°
2026-04-28 19:30 0.89479 -77.79727 14151 ft 174 kts 33°
2026-04-28 19:30 0.90537 -77.79146 14146 ft 173 kts 32°
2026-04-28 19:31 0.91591 -77.78570 14101 ft 172 kts 32°
2026-04-28 19:31 0.92644 -77.77995 14096 ft 172 kts 34°
2026-04-28 19:31 0.93695 -77.77422 14097 ft 172 kts 34°
2026-04-28 19:31 0.94751 -77.76842 14097 ft 173 kts 33°
2026-04-28 19:32 0.95762 -77.76209 14098 ft 170 kts 45°
2026-04-28 19:32 0.96598 -77.75379 14096 ft 169 kts 51°
2026-04-28 19:32 0.97386 -77.74505 14098 ft 169 kts 53°
2026-04-28 19:32 0.98162 -77.73619 14093 ft 170 kts 53°
2026-04-28 19:33 0.98944 -77.72731 14089 ft 170 kts 52°
2026-04-28 19:33 0.99711 -77.71861 14090 ft 169 kts 52°
2026-04-28 19:33 1.00486 -77.70982 14084 ft 169 kts 51°
2026-04-28 19:33 1.01256 -77.70100 14081 ft 168 kts 52°
2026-04-28 19:34 1.02030 -77.69218 14080 ft 169 kts 53°
2026-04-28 19:34 1.02810 -77.68335 14074 ft 170 kts 53°
2026-04-28 19:34 1.03608 -77.67460 14067 ft 171 kts 51°
2026-04-28 19:34 1.04456 -77.66617 14064 ft 172 kts 48°
2026-04-28 19:35 1.05338 -77.65805 14056 ft 173 kts 46°
2026-04-28 19:35 1.06220 -77.64992 14050 ft 173 kts 46°
2026-04-28 19:35 1.07104 -77.64181 14041 ft 173 kts 46°
2026-04-28 19:35 1.07991 -77.63365 14034 ft 174 kts 46°
2026-04-28 19:36 1.08877 -77.62543 14022 ft 173 kts 47°
2026-04-28 19:36 1.09764 -77.61725 14018 ft 173 kts 49°
2026-04-28 19:36 1.10554 -77.60851 14004 ft 170 kts 55°
2026-04-28 19:36 1.11254 -77.59889 14002 ft 168 kts 59°
2026-04-28 19:37 1.11932 -77.58926 13990 ft 169 kts 58°
2026-04-28 19:37 1.12378 -77.58289 13990 ft 169 kts 59°
2026-04-28 19:37 1.13279 -77.57022 13976 ft 169 kts 58°
2026-04-28 19:37 1.13956 -77.56060 13966 ft 170 kts 58°
2026-04-28 19:38 1.14652 -77.55082 13948 ft 171 kts 58°
2026-04-28 19:38 1.15336 -77.54116 13951 ft 170 kts 59°
2026-04-28 19:38 1.16010 -77.53160 13947 ft 171 kts 59°
2026-04-28 19:38 1.16704 -77.52190 13912 ft 172 kts 59°
2026-04-28 19:39 1.17454 -77.51220 13902 ft 175 kts 54°
2026-04-28 19:39 1.18212 -77.50272 13902 ft 176 kts 56°
2026-04-28 19:39 1.18968 -77.49322 13896 ft 177 kts 55°
2026-04-28 19:39 1.19736 -77.48360 13891 ft 176 kts 56°
2026-04-28 19:40 1.20498 -77.47414 13876 ft 174 kts 55°
2026-04-28 19:40 1.21252 -77.46478 13883 ft 172 kts 55°
2026-04-28 19:40 1.22004 -77.45546 13872 ft 172 kts 56°
2026-04-28 19:40 1.22743 -77.44622 13874 ft 169 kts 56°
2026-04-28 19:41 1.23492 -77.43695 13689 ft 172 kts 56°
2026-04-28 19:41 1.24235 -77.42768 13472 ft 170 kts 56°
2026-04-28 19:41 1.24979 -77.41855 13248 ft 170 kts 54°
2026-04-28 19:41 1.25709 -77.40950 13025 ft 167 kts 55°
2026-04-28 19:42 1.26440 -77.40030 12801 ft 168 kts 56°
2026-04-28 19:42 1.27157 -77.39129 12577 ft 167 kts 57°
2026-04-28 19:42 1.27880 -77.38220 12361 ft 167 kts 57°
2026-04-28 19:42 1.28376 -77.37611 12211 ft 167 kts 54°
2026-04-28 19:43 1.29343 -77.36415 11838 ft 167 kts 55°
2026-04-28 19:43 1.30077 -77.35532 11520 ft 164 kts 46°
2026-04-28 19:43 1.31032 -77.34920 11200 ft 161 kts 32°
2026-04-28 19:43 1.31986 -77.34380 10843 ft 154 kts 35°
2026-04-28 19:44 1.32907 -77.33857 10490 ft 151 kts 34°
2026-04-28 19:44 1.33810 -77.33336 10137 ft 149 kts 34°
2026-04-28 19:44 1.34709 -77.32826 9778 ft 148 kts 32°
2026-04-28 19:44 1.35310 -77.32486 9489 ft 151 kts 33°
2026-04-28 19:45 1.36320 -77.32144 9035 ft 156 kts 13°
2026-04-28 19:45 1.37388 -77.31955 8611 ft 155 kts 12°
2026-04-28 19:45 1.38770 -77.31680 8042 ft 152 kts 15°
2026-04-28 19:45 1.39775 -77.31400 7612 ft 147 kts 17°
2026-04-28 19:46 1.40743 -77.31094 7168 ft 146 kts 17°
2026-04-28 19:46 1.41372 -77.30877 6961 ft 139 kts 18°
2026-04-28 19:46 1.42176 -77.30485 6841 ft 119 kts 31°
2026-04-28 19:46 1.42580 -77.29768 6629 ft 128 kts 88°
2026-04-28 19:47 1.42300 -77.29041 6455 ft 97 kts 134°
2026-04-28 19:47 1.41776 -77.28705 6378 ft 90 kts 162°
2026-04-28 19:47 1.41161 -77.28701 6104 ft 89 kts 190°
2026-04-28 19:47 1.40588 -77.28853 5918 ft 79 kts 191°
2026-04-28 19:48 1.40125 -77.28967 5875 ft 56 kts 191°
2026-04-28 19:48 1.39839 -77.29046 5893 ft 31 kts 196°
2026-04-28 19:48 1.39710 -77.29082 5901 ft 14 kts 196°
2026-04-28 19:48 1.39631 -77.29103 5905 ft 10 kts 186°
2026-04-28 19:49 1.39592 -77.29061 5906 ft 9 kts 104°
2026-04-28 19:49 1.39556 -77.29037 5907 ft 7 kts 195°
2026-04-28 19:49 1.39517 -77.29026 5907 ft 7 kts 115°
2026-04-28 19:49 1.39511 -77.29004 5907 ft 0 kts 103°